Location: Plainartige
(45.6866°N, 1.7993°E)
Time: 04:20:57
(UTC+00:00)

deb r/b Ablestar - Pass Details

Date: 04 October 2021
Orbit: 844 x 997 km, 67.7° (Epoch: 16 October)

Event Time Altitude Azimuth Distance (km) Brightness Sun altitude
Rises 21:29:57 0° 308° (NW) 3,430 ? -40.1°
Reaches altitude 10° 21:34:48 10° 272° (W) 2,515 ? -40.6°
Enters shadow 21:35:54 11° 261° (W) 2,479 ? -40.8°
